Regional Weather Roundup
Issued by NWS

Home | Current Version | Previous Version | Text Only | Print | Product List | Glossary On
Versions: 1 2 3 4 5 6 7 8 9 10 11 12 13 14 15 16 17 18 19 20 21 22 23 24 25 26 27 28 29 30 31 32 33 34 35 36 37 38 39 40 41 42 43 44 45 46 47 48 49 50
000
ASUS44 KOUN 031100
RWROK

WEATHER ROUNDUP FOR OKLAHOMA
NATIONAL WEATHER SERVICE NORMAN OK
600 AM CDT MON AUG 03 2015

NOTE: "FAIR" INDICATES FEW OR NO CLOUDS BELOW 12,000 FEET WITH NO
      SIGNIFICANT WEATHER AND/OR OBSTRUCTIONS TO VISIBILITY.

OKZ001>007-009>012-014-015-017-031200-
NORTHWEST OKLAHOMA AND THE PANHANDLE

CITY           SKY/WX    TMP DP  RH WIND       PRES   REMARKS
GAGE           MOCLDY    71  66  84 S8        29.96R
GUYMON         MOCLDY    69  64  84 NW5       29.96R
$$

OKZ016-021>023-033>039-044-045-031200-
SOUTHWEST OKLAHOMA

CITY           SKY/WX    TMP DP  RH WIND       PRES   REMARKS
LAWTON/REGL    RAIN      72  65  78 W10       29.96R
LAWTON/FT SILL HVY RAIN  70  67  89 SW9       29.95R FOG
FREDERICK      RAIN      71  68  90 N9        29.96R
CLINTON        LGT RAIN  72  66  81 S18       29.96S
HOBART         LGT RAIN  70  67  90 SW15      29.97S
ALTUS AFB      RAIN      71  67  87 W9        29.99S
$$

OKZ018>020-024>031-031200-
CENTRAL OKLAHOMA

CITY           SKY/WX    TMP DP  RH WIND       PRES   REMARKS
OKLAHOMA CITY  CLOUDY    71  67  87 CALM      29.94R
OKC/WILEY POST CLOUDY    75  65  70 SW6       29.94R
OKC/TINKER AFB CLOUDY    73  63  72 S5        29.94R
STILLWATER     CLOUDY    75  66  73 S5        29.93R
GUTHRIE        MOCLDY    73  66  78 CALM      29.93R
$$

OKZ008-013-054>072-031200-
NORTHEAST OKLAHOMA

CITY           SKY/WX    TMP DP  RH WIND       PRES   REMARKS
TULSA          MOCLDY    75  68  78 SE3       29.91R
TULSA/JONES    MOCLDY    71  69  93 CALM      29.92R
PONCA CITY     PTCLDY    75  65  70 SE7       29.92R
BARTLESVILLE   MOCLDY    66  66 100 CALM      29.93R
MUSKOGEE       MOCLDY    73  71  93 SE5       29.93R
$$

OKZ032-040>043-046>053-073>077-031200-
SOUTH CENTRAL/SOUTHEAST OKLAHOMA

CITY           SKY/WX    TMP DP  RH WIND       PRES   REMARKS
MCALESTER      CLOUDY    76  61  59 CALM      29.93R
$$



USA.gov is the U.S. government's official web portal to all federal, state and local government web resources and services.